Location: Cointrin
(46.2167°N, 6.1167°E)
Time: 19:24:21
(UTC+00:00)

Atlas Centaur 2 - Pass Details

Date: 08 February 2023
Orbit: 458 x 1296 km, 30.4° (Epoch: 22 March)

Event Time Altitude Azimuth Distance (km) Brightness Sun altitude
Rises 17:38:45 0° 238° (WSW) 3,779 7.1 -8.8°
Reaches altitude 10° 17:41:53 10° 225° (SW) 2,956 6.0 -9.4°
Maximum altitude 17:47:35 24° 175° (S) 2,260 4.5 -10.3°
Drops below altitude 10° 17:53:51 10° 126° (SE) 3,269 4.8 -11.4°
Enters shadow 17:55:45 - 119° (ESE) 3,773 5.1 -11.7°
